Regional Weather Roundup
Issued by NWS

Home | Current Version | Previous Version | Text Only | Print | Product List | Glossary Off
Versions: 1 2 3 4 5 6 7 8 9 10 11 12 13 14 15 16 17 18 19 20 21 22 23 24 25 26 27 28 29 30 31 32 33 34 35 36 37 38 39 40 41 42 43 44 45 46 47 48 49 50

000
ASUS45 KBOU 040107
RWRCO

WEATHER ROUNDUP FOR COLORADO
NATIONAL WEATHER SERVICE DENVER/BOULDER CO
600 PM MST TUE MAR 03 2015

NOTE: "FAIR" INDICATES FEW OR NO CLOUDS BELOW 12000 FEET WITH NO
SIGNIFICANT WEATHER AND/OR OBSTRUCTIONS TO VISIBILITY.

COZ001>005-013-030-031-040200-
...NORTHWEST COLORADO...

CITY           SKY/WX    TMP DP  RH WIND       PRES   REMARKS
CRAIG            N/A     25  17  72 CALM      29.77R
HAYDEN         CLOUDY    21  18  86 SW14      29.74R WCI   8
MEEKER         HVY SNOW  27  24  89 NE7       29.75R VSB 1/4 WCI  19
MOUNT WERNER   NOT AVBL
STEAMBOAT SPGS CLOUDY    24  20  87 SW16G22   29.72R WCI  11
WALDEN         CLOUDY    12   9  85 N15       29.67R WCI  -4
$$

COZ006>008-011-040200-
...WEST CENTRAL VALLEYS...

CITY           SKY/WX    TMP DP  RH WIND       PRES   REMARKS
GRAND JUNCTION MOCLDY    39  26  59 SW6       29.76R
MONTROSE       PTCLDY    38  24  57 S10       29.78R
EAGLE          MOCLDY    28  28 100 CALM      29.74R
RIFLE          MOCLDY    36  28  73 N3        29.73S
DELTA          MOCLDY    41  28  58 SW10      29.76R
NUCLA          PTCLDY    36  27  69 S14       29.81S
$$

COZ017>023-064>068-040200-
...SOUTHWEST COLORADO...

CITY           SKY/WX    TMP DP  RH WIND       PRES   REMARKS
DURANGO        PTCLDY    31  27  85 W9        29.81S WCI  23
CORTEZ         FLURRIES  36  29  75 N6        29.82R
PAGOSA SPRINGS PTCLDY    28  28  99 SW9       29.80S WCI  19
TELLURIDE      FLURRIES  26  16  67 W13       29.79R WCI  14
WOLF CREEK PAS CLOUDY    12  12 100 MISG      29.75R
$$

COZ009-010-012-014-032>034-037-058>063-040200-
...CENTRAL COLORADO...

CITY           SKY/WX    TMP DP  RH WIND       PRES   REMARKS
ASPEN          MOCLDY    27  21  78 N3        29.70R
BUENA VISTA    CLOUDY    30  14  51 W3        29.68R
COPPER MTN     NOT AVBL
BERTHOUD PASS  SNOW       9   1  72 W26G41    29.62S VSB 1/2 WCI -13
COTTONWOOD PAS CLOUDY    28   9  43 W14G29    29.67R WCI  17
GUNNISON       MOCLDY    28  16  59 W9        29.75R WCI  20
KREMMLING      FLURRIES  30  19  64 NW14      29.69R WCI  20
LEADVILLE      MOCLDY    17  12  80 VRB3      29.66R
SALIDA         MOCLDY    33  21  61 SW6       29.78R WCI  28
SUNLIGHT       HVY SNOW  19  18  93 CALM        N/A  VSB<1/4
WILKERSON PASS CLOUDY    18  14  86 SW5       29.68R FOG     WCI  11
$$

COZ069>075-040200-
...SAN LUIS VALLEY/SANGRE DE CRISTO MOUNTAINS...

CITY           SKY/WX    TMP DP  RH WIND       PRES   REMARKS
ALAMOSA        CLEAR     31  20  63 SW14      29.74R WCI  21
LA VETA PASS   CLOUDY    23  14  68 S14G25    29.72S WCI  11
SAGUACHE       MOCLDY    30  23  74 W6        29.73R WCI  24
$$

COZ035-036-038>040-040200-
...NORTHERN COLORADO FRONT RANGE...

CITY           SKY/WX    TMP DP  RH WIND       PRES   REMARKS
DENVER INTL AP CLOUDY    19  15  84 NE5       29.82R WCI  12
DMNS CITY PARK   N/A     20  15  80 E5        29.83R WCI  13
AURORA         CLOUDY    18  15  90 NE3       29.81R
FRONT RANGE AP NOT AVBL
ERIE MUNI ARPT FLURRIES  21  15  75 E3        29.83S
BOULDER MUN AP LGT SNOW  21  18  86 NE3       29.82S
CENTENNIAL     CLOUDY    18  14  84 NE5       29.79R WCI  11
BROOMFIELD     DRIZZLE   19  16  86 CALM        N/A
FORT COLLINS   MOCLDY    21  14  73 CALM      29.85R
LONGMONT       FLURRIES  24  15  71 CALM      29.86R
$$

COZ041-046-047-076>085-087-088-040200-
...PIKES PEAK/PALMER DIVIDE AND SOUTHERN FOOTHILLS...

CITY           SKY/WX    TMP DP  RH WIND       PRES   REMARKS
COLO. SPRINGS  LGT SNOW  22  19  89 SE13      29.80R FOG     WCI  10
A. F. ACADEMY  LGT SNOW  21  18  86 S16       29.76R FOG     WCI   7
ELLICOTT       NOT AVBL
FALCON         LGT SNOW  19  18  96 SE8       29.78R WCI   8
FORT CARSON    LGT SNOW  24  20  88 SE12      29.81R FOG     WCI  12
LIMON          NOT AVBL
MONUMENT HILL  LGT SNOW  18  16  93 E8        29.72S WCI   7
TRINIDAD       FOG       28  27  96 NE12      29.81R VSB 1/4 WCI  18
$$

COZ042>045-048>051-090-091-040200-
...NORTHEAST COLORADO...

CITY           SKY/WX    TMP DP  RH WIND       PRES   REMARKS
GREELEY ARPT   MOCLDY    25  10  54 CALM      29.85R
AKRON          CLOUDY    22  11  62 NE8       29.86R WCI  12
BURLINGTON     CLOUDY    26  14  60 NE7       29.89R WCI  18
WRAY           CLOUDY    27  12  53 NE8       29.92R WCI  19
STERLING       CLOUDY    25  12  58 NE8       29.90R WCI  16
HOLYOKE        NOT AVBL
FORT MORGAN    CLOUDY    24  12  61 NE6       29.88R WCI  16
$$

COZ086-089-092>099-040200-
...SOUTHEAST COLORADO...

CITY           SKY/WX    TMP DP  RH WIND       PRES   REMARKS
PUEBLO         CLOUDY    28  22  78 E12       29.85R WCI  18
LA JUNTA       CLOUDY    29  22  75 E13       29.87R WCI  19
LAMAR          CLOUDY    29  21  72 NE9       29.89R WCI  20
SPRINGFIELD      N/A     26  25  96 NE14      29.85R WCI  14
$$


USA.gov is the U.S. government's official web portal to all federal, state and local government web resources and services.